CORVUS BC1

Last updated on Tue Sep 16 2025 00:03:48 GMT+0000 (Coordinated Universal Time)

1 42847U 17042Y 25258.52888585 .00003652 00000+0 26924-3 0 9991 2 42847 97.3865 67.1074 0010997 313.1402 46.8904 15.03851056445772
UTC large
Height (km)
Speed (km/s)
/
Latitude / Longitude
Inclination (degrees)
Orbital Period (minutes)
Azimuth
Elevation
Range (km)
Doppler Factor

Next 0 passes for location: London (51.5072 / 0.1276)

Sorry there are no passes over London.